Location: F M Corners
(41.2198°N, 80.4709°W)
Time: 17:59:55
(UTC+00:00)

Radarsat Rocket - Pass Details

Date: 29 October 2020
Orbit: 933 x 1492 km, 100.6° (Epoch: 27 November)

Event Time Altitude Azimuth Distance (km) Brightness Sun altitude
Rises 22:47:14 0° 170° (S) 3,758 7.1 -5.7°
Reaches altitude 10° 22:49:48 10° 173° (S) 2,755 6.5 -6.2°
Maximum altitude 22:55:49 67° 255° (WSW) 1,027 4.5 -7.3°
Drops below altitude 10° 23:01:36 10° 338° (NNW) 2,650 6.4 -8.3°
Sets 23:04:02 0° 342° (NNW) 3,605 7.1 -8.8°
